Location: Peterborough
(44.3091°N, 78.3197°W)
Time: 05:36:08
(UTC-04:00)

A-11 Canister half - Pass Details

Date: 24 March 2023
Orbit: 1513 x 1686 km, 47.2° (Epoch: 04 June)

Event Time Altitude Azimuth Distance (km) Brightness Sun altitude
Exits shadow 04:04:13 43° 286° (WNW) 2,239 9.5 -31.5°
Maximum altitude 04:08:20 82° 205° (SSW) 1,701 9.0 -30.9°
Drops below altitude 10° 04:18:29 10° 119° (ESE) 3,919 11.4 -29.5°
Sets 04:21:36 0° 119° (ESE) 4,890 12.0 -29.0°
